Hourly Data Report for August 07, 2006

TORONTO CITY
ONTARIO

43°40'00.000" N
79°24'00.000" W
112.50 m
6158355
71508
XTO

Download Data

Hourly Data (August 2006)
Hourly Data Report for August 7, 2006
TIME
LST
Temp Definition
°C
Dew Point Definition
°C
Rel Hum Definition
%
Precip. Amount Definition
mm

Wind Dir Definition
10's deg

Wind Spd Definition
km/h
Visibility Definition
km
Stn Press Definition
kPa
Hmdx Definition


Wind Chill Definition


Weather Definition


00:00 22.9 20.0 84   LegendMM LegendMM   100.04 30   LegendNANA
01:00 22.5 18.9 80   LegendMM LegendMM   99.99 29   LegendNANA
02:00 21.6 18.4 82   LegendMM LegendMM   99.97 28   LegendNANA
03:00 21.8 18.6 82   LegendMM LegendMM   99.97 28   LegendNANA
04:00 21.2 18.7 86   LegendMM LegendMM   99.94 28   LegendNANA
05:00 21.1 18.5 85   LegendMM LegendMM   99.94 27   LegendNANA
06:00 21.2 18.6 85   LegendMM LegendMM   99.97 28   LegendNANA
07:00 22.3 19.7 85   LegendMM LegendMM   99.99 30   LegendNANA
08:00 23.5 20.3 82   LegendMM LegendMM   100.02 31   LegendNANA
09:00 25.5 21.4 78   LegendMM LegendMM   100.02 34   LegendNANA
10:00 27.6 22.7 75   LegendMM LegendMM   100.02 38   LegendNANA
11:00 28.9 20.4 60   LegendMM LegendMM   100.01 37   LegendNANA
12:00 29.4 18.9 53   LegendMM LegendMM   100.00 36   LegendNANA
13:00 29.3 18.0 51   LegendMM LegendMM   100.01 35   LegendNANA
14:00 29.5 18.2 51   LegendMM LegendMM   100.03 36   LegendNANA
15:00 29.6 15.7 43   LegendMM LegendMM   100.05 34   LegendNANA
16:00 28.3 14.3 42   LegendMM LegendMM   100.07 32   LegendNANA
17:00 27.0 14.5 46   LegendMM LegendMM   100.09 31   LegendNANA
18:00 26.0 13.7 47   LegendMM LegendMM   100.15 29   LegendNANA
19:00 24.7 14.0 51   LegendMM LegendMM   100.20 28   LegendNANA
20:00 23.9 14.6 56   LegendMM LegendMM   100.25 28   LegendNANA
21:00 22.9 14.8 60   LegendMM LegendMM   100.32 27   LegendNANA
22:00 22.3 14.7 62   LegendMM LegendMM   100.36 26   LegendNANA
23:00 21.6 15.2 67   LegendMM LegendMM   100.40 26   LegendNANA

Notes on Data Quality.

Legend

  • E = Estimated
  • M = Missing
  • NA = Not Available*
  • [empty] = Indicates an unobserved value
Date modified: